Regional Weather Roundup
Issued by NWS

Home | Current Version | Previous Version | Text Only | Print | Product List | Glossary On
Versions: 1 2 3 4 5 6 7 8 9 10 11 12 13 14 15 16 17 18 19 20 21 22 23 24 25 26 27 28 29 30 31 32 33 34 35 36 37 38 39 40 41 42 43 44 45 46 47 48 49 50
000
ASUS43 KMPX 240710
RWRMN
WEATHER ROUNDUP FOR MINNESOTA
NATIONAL WEATHER SERVICE TWIN CITIES/CHANHASSEN MN
200 AM CDT THU JUL 24 2014


NOTE: "FAIR" INDICATES FEW OR NO CLOUDS BELOW 12,000 FEET WITH NO
SIGNIFICANT WEATHER AND/OR OBSTRUCTIONS TO VISIBILITY. N/A MEANS
CURRENT SKY AND/OR WEATHER CONDITIONS ARE NOT AVAILABLE.

MNZ060>063-068>070-240800-
   Twin Cities Metro

CITY           SKY/WX    TMP DP  RH WIND       PRES   REMARKS
TWIN CITIES    CLEAR     67  57  70 E6        30.17S
ST PAUL        CLEAR     65  57  75 CALM      30.17S
CRYSTAL        CLEAR     61  56  83 CALM      30.15F
BLAINE         CLEAR     61  57  88 CALM      30.17S
LAKEVILLE      CLEAR     55  54  94 CALM      30.17S
EDEN PRAIRIE   CLEAR     61  56  83 CALM      30.16S
SOUTH ST PAUL  CLEAR     64  57  78 CALM      30.17S
LAKE ELMO      FAIR      57  55  94 CALM      30.19R
$$
MNZ001>005-007-008-013>017-022>024-027-028-240800-
   Northwest Minnesota

CITY           SKY/WX    TMP DP  RH WIND       PRES   REMARKS
BEMIDJI        PTCLDY    54  51  91 CALM      30.17F
HALLOCK        PTCLDY    57  54  88 E6        30.15F
ROSEAU         PTCLDY    52  48  87 CALM      30.17S
WARROAD        PTCLDY    52  48  87 CALM      30.18S
THIEF RVR FALL PTCLDY    57  55  94 CALM      30.17S
CROOKSTON      CLEAR     57  55  94 SE3       30.16F
FOSSTON        PTCLDY    52  46  82 CALM      30.18S
DETROIT LAKES  CLEAR     63  59  88 CALM      30.19S
MOORHEAD       CLEAR     63  61  94 E3        30.16S
PARK RAPIDS    PTCLDY    54  53  97 CALM      30.18F
$$
MNZ006-009>011-018-025>026-240800-
   North Central Minnesota

CITY           SKY/WX    TMP DP  RH WIND       PRES   REMARKS
BAUDETTE       PTCLDY    57  53  86 CALM      30.18F
FLAG ISLAND    CLEAR     64  48  55 CALM      30.15F
INTL FALLS     CLEAR     48  47  96 CALM      30.17F
WASKISH        CLEAR     52  52 100 CALM      30.17F
BIG FORK       PTCLDY    50  48  93 CALM      30.19F
LONGVILLE      CLEAR     52  52 100 CALM      30.17F
GRAND RAPIDS   PTCLDY    54  50  87 SE3       30.18F
CRANE LAKE     CLEAR     45  45 100 CALM        N/A
ORR            CLEAR     48  46  93 CALM      30.17S
COOK           CLEAR     46  46 100 CALM      30.19S
$$
MNZ012-019>021-037-240800-
   Northeast Minnesota

CITY           SKY/WX    TMP DP  RH WIND       PRES   REMARKS
DULUTH         MOCLDY    57  50  77 E3        30.18F
ELY            CLEAR     46  45  93 CALM      30.19F
HIBBING        CLEAR     47  45  93 CALM      30.19S FOG
EVELETH        CLEAR     45  45 100 NE3       30.20F
DULUTH HARBOR  CLEAR     55  54  94 E6        30.18F
TWO HARBORS    CLEAR     48  43  81 CALM      30.17S
SILVER BAY     CLEAR     46  46 100 CALM      30.17F
GRAND MARAIS     N/A     49  47  93 NW3       30.17F
G MARAIS ARPRT CLEAR     43  39  87 CALM      30.21S
$$
MNZ029>031-032-039>041-046>048-054>057-064-240800-
   West Central Minnesota

CITY           SKY/WX    TMP DP  RH WIND       PRES   REMARKS
FERGUS FALLS   CLEAR     63  55  77 E3        30.16F
WHEATON        CLEAR     57  57 100 SE6       30.17F
MORRIS         CLEAR     57  55  94 E5        30.17S
ALEXANDRIA     CLEAR     61  56  83 E3        30.19F
ELBOW LAKE     FAIR      65  58  77 E5        30.17S
WADENA         CLEAR     55  54  94 CALM      30.18S
GLENWOOD       CLEAR     61  55  82 E5        30.19S
APPLETON       CLEAR     61  55  82 CALM      30.16S
BENSON         CLEAR     57  57 100 CALM      30.17S
ORTONVILLE     CLEAR     63  55  77 SE5       30.16F
MADISON        CLEAR     63  61  94 CALM      30.17S
WILLMAR        FAIR      61  55  82 CALM      30.19F
$$
MNZ033>034-036-042>043-049>051-058-059-240800-
   Central Minnesota

CITY           SKY/WX    TMP DP  RH WIND       PRES   REMARKS
ST CLOUD       CLEAR     56  52  86 CALM      30.17S
SAUK CENTRE    FAIR      57  56  96 CALM      30.19S
PAYNESVILLE    CLEAR     52  52 100 CALM      30.19S
AITKIN         HAZE      54  46  76 CALM      30.17S VSB 1/2
PINE RIVER     CLEAR     52  52 100 CALM      30.20F
BRAINERD       CLEAR     52  52 100 CALM      30.18S
STAPLES        PTCLDY    54  54 100 CALM      30.18S
LONG PRAIRIE   FAIR      55  54  94 CALM      30.19S
LITTLE FALLS   CLEAR     52  52 100 CALM      30.18S
LITCHFIELD     CLEAR     59  57  94 CALM      30.19S
BUFFALO        CLEAR     58  53  83 CALM      30.18S
MAPLE LAKE     CLEAR     56  55  95 CALM      30.18S
$$
MNZ037-044-045-052-053-240800-
   East Central Minnesota

CITY           SKY/WX    TMP DP  RH WIND       PRES   REMARKS
PRINCETON      CLEAR     55  54  94 CALM      30.17F
MORA           CLEAR     55  54  94 CALM      30.19S
CAMBRIDGE      CLEAR     61  52  72 CALM      30.15F
RUSH CITY      PTCLDY    57  55  94 CALM      30.18S
MOOSE LAKE     MOCLDY    55  52  88 CALM      30.17S
HINCKLEY       CLOUDY    59  57  94 N3        30.18R
CLOQUET        PTCLDY    54  50  87 CALM      30.19R
MCGREGOR       CLEAR     54  52  94 CALM      30.19S
$$
MNZ071>073-080-081-089-090-097-098-240800-
   Southwest Minnesota

CITY           SKY/WX    TMP DP  RH WIND       PRES   REMARKS
MONTEVIDEO     CLEAR     63  57  82 S3        30.18S
GRANITE FALLS  CLEAR     60  56  87 CALM      30.19S
CANBY          CLEAR     59  57  94 CALM      30.18F
MARSHALL       CLEAR     61  54  77 CALM      30.17F
REDWOOD FALLS  CLEAR     61  54  77 CALM      30.17S
OLIVIA         CLEAR     59  54  82 CALM      30.17F
PIPESTONE      CLEAR     63  54  72 SE3       30.19S
WINDOM         CLEAR     57  52  82 CALM      30.19F
WORTHINGTON    CLEAR     57  52  82 CALM      30.20F
JACKSON        CLEAR     55  52  88 CALM      30.20S
TRACY          CLEAR     64  55  70 S6        30.19F
SLAYTON        CLEAR     61  54  79 CALM      30.20F
$$
MNZ065>067-074>077-082>085-091>093-240800-
   South Central Minnesota

CITY           SKY/WX    TMP DP  RH WIND       PRES   REMARKS
MANKATO        CLEAR     63  52  67 CALM      30.18S
NEW ULM        CLEAR     59  54  82 CALM      30.18S
ST JAMES       CLEAR     59  54  82 CALM      30.19S
FAIRMONT       CLEAR     61  52  72 CALM      30.18S
GLENCOE        CLEAR     60  54  78 CALM      30.17S
FARIBAULT      CLEAR     57  52  82 CALM      30.18S
OWATONNA       CLEAR     55  52  88 CALM      30.18S
WASECA         CLEAR     55  50  82 CALM      30.20R
ALBERT LEA     CLEAR     57  55  94 CALM      30.18S
$$
MNZ078>079-086>088-094>096-240800-
   Southeast Minnesota

CITY           SKY/WX    TMP DP  RH WIND       PRES   REMARKS
ROCHESTER      CLEAR     61  54  77 CALM      30.19R
RED WING       CLEAR     57  55  94 CALM      30.17R
STANTON        CLEAR     57  54  89 CALM      30.16S
DODGE CENTER   CLEAR     59  55  88 CALM      30.18S
WINONA         CLEAR     59  55  88 NW3       30.17R
AUSTIN           N/A     61  57  88 CALM      30.18R
PRESTON        CLEAR     62  57  86 CALM      30.18S
$$
ABBREVIATIONS USED IN REMARKS
   TC - TEMPERATURES IN CELSIUS
  WCI - WIND CHILL INDEX
   HX - HEAT INDEX
  VSB - VISIBILITY
$$



USA.gov is the U.S. government's official web portal to all federal, state and local government web resources and services.